Flag for USA

Past Weather in 42°12'15"N, 91°31'28"W, USA — Yesterday and Last 2 Weeks

Now
53 °F

Passing clouds.


Feels Like: 52 °F
Forecast: 59 / 47 °F
Wind: 6 mph from West

Location: Vinton Veterans Memorial Airpark Airport
Current Time: Sep 28, 2020 at 5:04:30 am
Latest Report: Sep 28, 2020 at 4:15 am
Visibility: 10 mi
Pressure29.82 "Hg
Humidity: 100%
Dew Point: 53 °F
Location of 42°12'15"N, 91°31'28"WLocation

Past Weather in 42°12'15"N, 91°31'28"W — Graph

°F

42°12'15"N, 91°31'28"W Temperature Yesterday

Maximum temperature yesterday: 76 °F (at 12:15 am)
Minimum temperature yesterday: 53 °F (at 11:55 pm)
Average temperature yesterday: 61 °F

High & Low Weather Summary for the Past Weeks

 TemperatureHumidityPressure
High85 °F (Sep 25, 3:55 pm)100% (Sep 13, 4:15 am)30.40 "Hg (Sep 13, 4:15 am)
Low43 °F (Sep 18, 7:15 am)30% (Sep 20, 3:35 pm)29.52 "Hg (Sep 26, 4:55 pm)
Average65 °F72%30.08 "Hg
* Reported Sep 13 4:15 am — Sep 28 4:15 am, 42°12'15"N, 91°31'28"W. Weather by CustomWeather, © 2020

Note: Actual official high and low records may vary slightly from our data, if they occured in-between our weather recording intervals... More about our weather records

42°12'15"N, 91°31'28"W Weather History for the Previous 24 Hours

Scroll right to see more
 ConditionsComfort  
Time TempWeatherWind HumidityBarometerVisibility
4:15 am
Mon, Sep 28
53 °FPassing clouds.6 mph100%29.82 "Hg10 mi
3:55 am53 °FPassing clouds.7 mph100%29.82 "Hg10 mi
3:35 am52 °FPassing clouds.6 mph97%29.82 "Hg10 mi
3:15 am51 °FPartly cloudy.6 mph97%29.82 "Hg10 mi
2:55 am51 °FPassing clouds.3 mph95%29.82 "Hg10 mi
2:35 am51 °FClear.5 mph92%29.82 "Hg10 mi
2:15 am51 °FClear.8 mph91%29.82 "Hg10 mi
1:55 am51 °FClear.8 mph91%29.82 "Hg10 mi
1:15 am52 °FClear.3 mph90%29.83 "Hg10 mi
12:55 am53 °FClear.6 mph91%29.83 "Hg10 mi
12:35 am53 °FClear.5 mph95%29.82 "Hg10 mi
12:15 am53 °FClear.6 mph96%29.82 "Hg10 mi
11:55 pm
Sun, Sep 27
53 °FClear.5 mph98%29.82 "Hg10 mi
11:35 pm56 °FClear.7 mph99%29.81 "Hg10 mi
11:15 pm53 °FClear.5 mph100%29.82 "Hg10 mi
10:55 pm55 °FClear.5 mph100%29.83 "Hg10 mi
10:35 pm56 °FClear.3 mph100%29.83 "Hg10 mi
10:15 pm56 °FClear.3 mph100%29.82 "Hg10 mi
9:55 pm56 °FClear.No wind99%29.83 "Hg10 mi
9:35 pm56 °FClear.3 mph99%29.84 "Hg10 mi
9:15 pm56 °FClear.6 mph97%29.84 "Hg10 mi
8:35 pm56 °FClear.7 mph95%29.84 "Hg10 mi
8:15 pm56 °FClear.6 mph94%29.85 "Hg10 mi
7:55 pm56 °FClear.6 mph92%29.84 "Hg10 mi
7:35 pm56 °FClear.5 mph88%29.84 "Hg10 mi
7:15 pm57 °FClear.7 mph86%29.83 "Hg10 mi
6:55 pm58 °FClear.6 mph85%29.83 "Hg10 mi
6:35 pm58 °FSunny.6 mph84%29.83 "Hg10 mi
6:15 pm58 °FSunny.7 mph83%29.84 "Hg10 mi
5:35 pm58 °FSunny.6 mph83%29.84 "Hg10 mi
5:15 pm58 °FSunny.5 mph84%29.84 "Hg10 mi
4:55 pm58 °FSunny.7 mph85%29.85 "Hg10 mi
4:35 pm58 °FSunny.8 mph86%29.85 "Hg10 mi
4:15 pm58 °FSunny.6 mph87%29.85 "Hg10 mi
3:55 pm58 °FSunny.5 mph93%29.86 "Hg10 mi
3:35 pm58 °FSunny.8 mph97%29.87 "Hg10 mi
3:15 pm57 °FSunny.9 mph98%29.87 "Hg10 mi
2:35 pm56 °FSunny.6 mph99%29.87 "Hg10 mi
2:15 pm56 °FLight rain. Sunny.7 mph100%29.87 "Hg10 mi
1:55 pm56 °FScattered clouds.8 mph100%29.85 "Hg10 mi
1:35 pm56 °FLight rain. Broken clouds.8 mph100%29.85 "Hg10 mi
1:15 pm56 °FRain. Mostly cloudy.8 mph100%29.87 "Hg7 mi
12:55 pm56 °FHeavy rain. Mostly cloudy.7 mph100%29.88 "Hg4 mi
12:35 pm57 °FRain. Mostly cloudy.6 mph100%29.87 "Hg7 mi
12:15 pm57 °FLight rain. Low clouds.8 mph98%29.87 "Hg7 mi
11:55 am57 °FRain. Overcast.7 mph97%29.88 "Hg5 mi
11:35 am58 °FRain. Mostly cloudy.6 mph90%29.86 "Hg5 mi
11:15 am58 °FRain. Partly sunny.7 mph82%29.85 "Hg4 mi
10:35 am64 °FScattered clouds.8 mph65%29.85 "Hg10 mi
8:55 am64 °FSunny.No wind70%29.76 "Hg10 mi
8:35 am62 °FSunny.No wind73%29.77 "Hg10 mi
8:15 am62 °FSunny.6 mph78%29.78 "Hg10 mi
7:55 am61 °FSunny.3 mph80%29.75 "Hg7 mi
7:35 am61 °FSunny.No wind79%29.75 "Hg10 mi
7:15 am61 °FSunny.5 mph83%29.76 "Hg10 mi
6:55 am61 °FClear.3 mph83%29.75 "Hg10 mi
6:35 am61 °FClear.6 mph82%29.74 "Hg10 mi
6:15 am62 °FClear.6 mph81%29.74 "Hg10 mi
5:55 am62 °FClear.7 mph81%29.74 "Hg10 mi
5:35 am64 °FClear.7 mph79%29.73 "Hg10 mi
5:15 am64 °FClear.8 mph79%29.73 "Hg10 mi
Weather by CustomWeather, © 2020

See weather overview